Theta_e
321 325 329 330 332 333 333 332 333 329 327 330 328 327 325 322 323 327 332 345 357 358 357 360 358 360 360 359 361 357 355 356 355 355 354 352 351 349 347 347 348 348 347 350 351 351 351 352 351 351 351 351 352 353 353 354 353 352 352 353 353 351 349 347 349 352 352 352 352 352 352 352 351 349 348 348 349 350 351 350 350 350 351 351 350 349
324 327 330 332 332 332 332 328 327 328 327 329 329 327 325 324 325 326 327 338 354 353 351 358 359 359 359 357 360 358 355 356 355 355 355 353 351 350 349 348 347 347 347 348 349 350 351 351 352 351 351 352 353 354 354 354 354 353 352 353 353 352 350 348 346 349 351 352 351 351 352 351 352 351 349 350 351 351 351 350 350 350 351 351 349 349
326 328 331 332 331 330 330 327 327 329 329 329 329 326 324 324 324 325 334 346 352 349 350 356 356 354 357 357 358 359 357 357 356 355 355 353 352 351 350 348 346 346 347 346 347 349 350 351 352 352 352 353 353 354 354 354 354 354 353 352 352 351 349 347 344 345 347 347 346 348 349 349 351 350 349 351 351 350 350 350 350 351 351 351 350 350
328 330 332 331 331 331 331 328 328 330 330 329 328 325 323 325 324 319 332 352 355 350 351 354 352 352 357 357 357 358 357 357 356 354 355 354 352 350 350 348 347 347 346 346 345 347 350 349 351 352 352 352 353 354 353 354 354 355 354 352 350 348 346 344 343 344 344 343 343 345 345 345 348 349 348 349 349 349 350 350 351 351 352 352 351 351
331 330 330 331 330 333 333 330 331 331 330 329 328 326 324 326 326 320 330 351 355 352 354 352 345 346 354 357 358 358 357 358 356 355 355 355 353 349 349 348 347 346 346 346 345 346 348 349 350 352 352 352 353 354 354 354 354 354 355 352 349 347 346 345 344 343 344 344 345 346 346 346 349 350 350 351 352 352 351 352 352 351 352 351 351 351
332 328 327 330 330 331 333 332 332 330 328 327 328 329 327 327 329 324 328 337 334 333 347 350 333 333 348 356 358 360 359 358 357 356 356 355 354 351 349 349 347 346 346 345 345 345 347 349 350 351 352 353 353 353 353 354 354 354 354 352 350 348 347 348 346 344 344 345 348 348 350 352 353 354 354 354 355 355 353 354 354 352 351 351 350 351
329 325 326 329 329 329 331 331 329 328 326 324 326 328 328 329 328 326 326 325 319 320 339 349 329 324 336 348 357 361 360 360 358 357 357 356 355 353 350 348 347 346 345 344 346 345 347 348 349 351 352 352 353 353 353 354 353 354 354 352 351 349 349 349 348 347 346 347 347 348 350 353 354 355 355 352 353 353 352 353 354 353 351 350 350 351
326 325 324 328 328 327 328 327 328 328 325 323 325 326 327 328 328 326 325 322 320 319 332 347 338 327 329 339 353 360 359 361 360 358 358 357 355 353 352 349 347 346 346 345 345 345 346 348 348 349 351 351 352 353 353 353 353 354 353 352 350 350 350 349 349 348 348 347 346 347 351 352 353 354 354 351 350 351 351 351 353 354 353 352 351 351
321 322 321 326 328 327 327 327 327 327 326 325 325 325 326 327 327 328 324 321 321 317 319 333 342 331 327 338 354 360 359 360 360 360 358 357 356 355 353 350 349 346 346 345 345 345 346 348 348 349 349 351 351 352 353 353 354 353 353 352 351 351 351 350 349 348 348 347 345 347 350 351 351 352 353 351 349 350 350 351 352 353 355 356 354 352
314 316 317 320 322 322 323 321 323 326 327 325 323 322 323 325 325 326 323 319 318 317 314 324 336 326 322 337 351 353 352 352 352 355 357 358 356 355 354 351 349 348 347 346 345 346 348 347 347 348 349 350 350 352 352 352 353 354 353 352 352 352 352 351 349 349 348 347 348 348 349 349 350 350 351 351 350 350 350 351 352 352 355 357 357 356
312 314 316 316 314 316 316 314 317 323 325 322 322 323 321 323 324 322 322 318 316 317 314 318 331 325 319 333 344 345 347 346 347 349 352 356 356 355 354 351 351 349 347 347 345 347 348 347 347 348 348 349 350 351 352 352 353 353 354 353 352 352 352 352 351 349 349 349 349 349 348 348 349 350 350 350 351 351 350 352 353 353 355 357 358 358
314 315 315 314 314 314 313 313 315 318 320 320 323 323 319 320 321 318 318 317 316 318 314 317 331 326 320 332 341 343 347 346 347 347 348 351 354 355 355 352 351 350 349 348 346 347 348 348 348 347 348 349 350 351 352 352 352 353 354 354 353 353 353 352 352 351 350 350 350 349 348 348 348 349 350 350 352 351 350 351 353 353 354 357 358 358
314 314 313 313 314 313 313 315 315 315 318 321 322 320 317 318 319 317 317 317 316 316 315 321 332 327 326 337 342 345 347 344 344 345 345 346 348 352 355 354 352 351 349 349 348 348 348 348 349 348 349 350 351 352 351 351 352 353 353 353 354 354 352 351 351 351 351 351 350 348 348 348 348 349 349 350 351 351 350 351 351 352 352 354 356 357
311 313 313 314 314 313 313 315 314 314 318 320 319 318 317 317 318 319 318 317 317 315 315 325 332 327 329 338 343 346 345 343 343 343 343 344 344 347 351 352 353 351 351 350 349 348 348 350 350 348 348 350 351 351 351 351 351 352 353 353 354 353 352 351 351 351 352 352 350 347 347 347 347 349 349 349 351 351 350 349 349 351 351 352 352 354
312 313 313 313 313 312 313 313 313 314 315 316 317 318 317 316 317 318 317 315 316 316 320 328 328 324 329 337 342 344 341 341 342 342 342 343 342 344 347 350 353 351 351 351 350 349 348 351 350 349 349 349 350 350 350 351 351 352 352 352 353 354 352 351 351 351 351 351 350 349 347 346 346 347 349 349 350 350 349 349 349 350 351 351 350 350
313 312 312 313 312 311 312 312 312 313 315 315 316 317 317 316 317 318 316 316 316 316 323 327 324 323 331 337 341 341 339 341 342 342 343 342 342 343 344 347 349 350 352 350 350 350 349 352 351 350 349 348 350 350 349 351 351 351 352 352 351 352 352 351 351 350 350 350 350 349 349 347 345 347 348 348 349 349 349 349 349 350 351 351 349 349
313 312 312 312 311 311 311 311 312 313 314 316 316 315 316 316 318 318 316 316 316 314 319 321 321 325 328 330 339 342 339 340 341 341 342 343 343 343 343 344 344 346 349 351 351 350 349 351 351 350 350 348 349 349 349 351 350 350 351 351 352 352 352 352 351 351 350 350 350 349 348 347 346 346 347 349 349 349 349 349 349 350 350 350 349 349
312 312 312 312 311 311 311 310 312 312 313 316 315 315 316 316 317 319 317 317 315 313 317 321 325 331 329 329 340 343 339 339 339 339 342 342 343 343 343 342 341 342 345 347 350 351 351 351 351 351 349 348 348 349 349 350 350 349 350 350 351 352 353 352 351 351 351 350 350 350 349 347 346 346 348 349 349 349 349 349 349 349 350 350 350 349
312 312 312 312 311 311 311 312 313 314 314 314 314 314 316 315 317 319 318 316 315 315 320 324 327 332 332 334 342 343 340 339 338 338 340 340 341 342 342 342 341 342 342 345 349 350 350 351 351 350 349 349 348 349 349 350 349 349 349 350 351 351 351 351 351 351 351 350 350 350 349 347 346 346 348 349 349 349 349 349 349 349 349 349 350 349
312 312 311 311 311 310 312 313 313 314 314 313 314 313 315 316 318 318 317 316 316 317 320 324 325 329 333 338 343 344 341 339 337 338 338 338 339 340 340 340 341 341 341 342 346 349 350 351 351 349 348 348 347 348 348 349 349 349 349 350 351 351 352 351 351 352 351 350 350 350 349 348 348 347 348 349 349 349 349 348 348 348 349 349 349 349
313 313 310 310 312 311 312 313 311 312 312 313 314 313 313 315 317 317 317 316 316 318 319 323 326 328 331 338 342 343 341 338 336 337 337 337 337 337 338 339 340 341 340 341 344 348 349 350 351 349 348 347 347 348 348 348 348 348 349 350 350 351 352 352 352 352 352 351 351 351 349 348 348 349 349 349 349 349 349 348 348 348 349 348 348 348
313 312 311 312 313 313 312 310 310 311 311 311 312 312 311 313 315 317 318 316 316 319 319 322 327 328 331 337 338 339 340 337 336 336 336 336 335 336 336 337 339 340 340 340 342 345 348 352 351 348 347 347 347 347 347 347 347 347 348 348 349 351 351 351 352 352 352 351 352 352 350 349 350 349 349 350 350 349 349 348 347 347 348 348 348 348
314 313 314 313 312 311 310 310 310 310 310 311 311 312 311 312 314 316 318 318 317 319 320 322 327 330 333 336 336 336 337 336 335 335 335 335 334 334 334 334 337 338 339 339 340 341 347 351 352 350 348 347 347 347 347 346 346 347 347 348 349 350 351 350 351 352 351 351 351 351 351 351 351 350 350 350 350 350 349 348 347 346 346 347 347 347
314 314 315 314 313 312 311 310 310 310 310 312 312 311 312 311 311 313 316 318 318 318 319 321 327 330 331 334 334 334 335 334 333 333 334 334 334 334 333 333 335 336 337 338 338 340 343 346 349 351 351 350 347 347 347 346 346 346 347 348 348 349 350 351 351 352 351 351 351 352 352 351 351 351 350 350 350 350 349 348 347 346 345 345 346 346
312 314 315 315 314 314 314 312 312 311 311 311 311 311 312 312 311 312 315 319 320 319 317 320 325 326 329 333 334 333 333 333 332 331 332 333 333 333 332 332 333 334 336 336 336 338 340 341 343 346 348 351 351 347 346 347 346 346 347 347 347 348 349 350 351 352 352 351 351 352 352 352 352 351 350 350 350 350 348 349 348 346 344 345 345 345
312 314 314 314 312 313 315 315 313 314 312 311 311 311 312 313 312 313 316 319 321 320 318 319 320 321 329 334 333 332 332 332 331 330 330 331 331 331 332 331 331 332 334 335 335 336 337 338 341 343 344 347 349 350 348 346 346 346 346 346 346 348 349 349 351 351 352 351 352 352 353 352 352 351 350 350 349 349 348 348 348 346 345 344 344 343
313 313 314 315 314 312 314 314 312 313 312 311 311 311 312 314 314 313 315 317 319 319 318 319 320 325 333 334 333 332 331 331 331 329 328 329 330 329 330 330 329 330 332 333 334 334 335 336 338 340 342 343 345 348 349 348 345 345 345 346 346 346 348 349 350 351 351 351 351 352 352 353 352 351 350 349 348 349 348 348 348 347 345 344 343 343
314 313 313 314 313 311 312 312 310 312 312 311 311 310 311 315 317 316 316 316 316 317 318 319 324 331 334 334 333 332 330 330 329 328 328 328 327 327 328 329 328 328 330 331 332 333 333 334 335 338 340 341 343 344 346 348 349 347 346 346 346 346 348 348 349 350 351 351 351 353 352 352 352 351 350 349 348 348 348 348 347 347 346 344 342 342
313 312 311 312 311 310 310 310 310 310 311 311 311 311 311 315 318 320 321 320 316 317 320 322 328 334 332 332 332 330 328 329 328 326 327 326 327 327 327 327 327 326 328 329 331 332 332 332 334 336 337 339 340 341 342 345 347 348 349 347 346 345 346 348 348 348 349 351 352 352 352 351 351 352 350 349 348 348 348 347 347 347 346 344 343 341
313 313 311 311 311 311 310 311 310 310 310 310 310 311 314 317 321 324 327 326 322 324 326 326 330 333 329 329 331 329 327 328 327 326 326 326 326 326 326 326 325 325 326 327 329 330 330 331 333 334 336 337 338 339 340 342 343 346 349 349 348 346 346 348 348 347 349 351 351 351 351 350 350 350 350 349 349 348 347 347 347 347 345 344 343 343
313 315 313 310 311 311 310 311 310 310 311 310 310 313 316 318 322 325 328 328 328 330 329 328 331 331 327 327 329 328 327 328 327 327 327 326 326 325 325 325 325 324 325 325 327 328 329 330 332 333 334 334 335 337 338 338 341 343 346 348 349 349 347 347 349 348 349 350 351 350 350 349 350 350 350 349 348 348 347 347 347 346 345 344 344 343
312 313 312 310 310 311 311 310 310 310 310 310 312 314 316 318 322 326 327 328 329 330 329 329 331 331 327 325 327 327 327 328 327 327 327 326 326 326 325 325 324 325 324 323 325 327 327 328 330 332 332 333 334 334 335 336 338 340 343 346 348 350 350 348 347 348 349 349 350 350 349 350 350 350 349 349 349 348 348 347 347 346 345 344 343 343
312 311 311 310 309 311 310 310 311 310 308 310 311 313 317 320 322 325 327 327 328 328 328 329 330 328 326 325 325 326 327 328 327 326 326 325 325 326 326 325 325 325 324 323 323 324 325 327 329 330 331 332 332 333 333 334 336 337 340 344 348 351 353 353 349 347 348 349 349 349 348 349 351 350 349 349 348 347 348 347 347 347 346 345 344 344
313 312 313 312 310 310 310 311 312 308 307 310 311 312 316 319 320 322 325 326 327 327 328 328 328 326 325 325 325 325 326 326 325 325 325 325 325 325 325 325 325 325 325 324 323 323 325 327 328 329 330 331 331 332 332 332 333 335 338 343 348 351 354 356 353 350 349 348 349 348 348 349 350 350 350 349 348 348 349 348 348 348 348 347 346 345
313 312 314 314 311 310 312 310 308 306 308 310 311 314 317 317 317 321 324 324 323 324 326 325 324 324 324 323 323 323 324 325 324 323 323 322 323 323 324 324 324 325 325 324 324 325 326 326 327 328 329 330 330 331 331 331 331 333 337 342 346 347 350 354 356 355 351 349 349 349 350 350 350 350 350 350 350 351 350 350 349 348 349 348 348 347
313 313 314 313 312 311 311 308 306 308 310 312 313 316 317 317 319 322 324 323 321 321 322 323 322 322 322 321 321 322 322 323 324 323 321 320 320 320 321 322 322 323 325 325 325 326 326 326 326 327 328 329 330 330 330 329 330 332 336 341 342 342 343 345 349 352 354 352 351 350 351 352 350 351 352 352 353 352 352 352 350 349 349 350 349 349
313 314 314 313 313 312 311 310 310 311 312 314 317 317 317 317 319 320 321 322 319 318 319 321 320 319 319 318 318 319 320 324 327 325 321 318 318 318 318 320 321 322 324 325 325 326 326 325 325 326 327 328 328 329 329 328 329 332 336 338 339 338 338 338 339 342 346 352 354 353 353 352 350 351 352 353 354 354 353 353 352 351 351 351 351 351
313 314 314 313 313 312 311 312 312 310 310 316 319 316 315 315 316 317 318 319 318 316 317 318 318 317 317 316 316 317 320 325 328 327 321 317 316 316 317 319 320 321 322 323 324 326 326 325 325 326 326 327 327 329 329 327 329 333 335 336 336 336 336 335 335 336 339 345 352 356 355 353 351 351 353 354 355 354 354 354 353 353 353 352 352 351
312 313 313 312 313 313 312 312 312 310 311 315 317 316 314 313 315 316 315 317 317 315 314 315 315 315 315 314 314 315 319 322 324 323 318 314 314 314 316 318 320 320 320 321 322 324 326 326 326 326 326 326 326 327 328 327 329 332 334 334 334 335 334 333 332 333 335 339 345 352 357 357 355 353 353 354 355 354 354 355 355 354 354 354 353 353
312 313 312 312 313 314 312 312 313 312 313 315 316 315 313 313 315 315 314 317 317 314 313 313 313 313 314 314 313 315 317 318 319 317 314 313 314 314 315 317 318 319 319 320 321 322 324 326 327 327 326 326 326 327 327 327 329 332 333 333 333 333 333 332 332 332 333 335 339 345 352 358 359 358 356 355 356 355 355 356 356 356 355 354 353 353
314 314 313 312 313 314 314 313 313 313 314 316 316 314 313 313 314 315 315 317 315 313 312 312 312 312 313 312 313 314 314 314 314 313 312 312 313 314 315 316 316 317 318 318 319 321 324 325 326 326 327 326 327 327 326 325 328 331 332 332 332 331 331 332 333 333 333 334 336 339 345 352 356 359 358 358 358 358 357 358 358 357 357 356 355 355
314 315 314 313 313 313 314 314 314 314 315 316 315 314 314 314 314 315 314 313 312 312 312 311 311 312 312 312 312 313 312 312 311 311 311 311 312 314 315 315 316 316 317 317 318 320 322 323 325 326 326 326 326 327 325 324 327 330 332 332 332 330 331 332 333 333 333 334 336 338 341 346 351 356 359 359 359 359 359 359 358 358 358 357 357 357
314 315 314 314 314 314 314 315 315 315 316 315 313 314 315 314 314 314 313 312 312 312 311 311 311 311 310 311 311 311 311 311 311 311 311 311 312 314 314 314 315 316 316 317 317 318 320 322 324 325 326 326 326 327 325 324 325 328 330 331 330 329 330 331 332 333 334 335 337 338 340 343 347 350 353 356 358 359 359 359 359 359 359 359 359 359
314 314 314 314 314 314 314 315 315 315 315 313 314 315 315 314 313 312 312 312 312 311 310 310 311 310 310 310 310 310 311 311 311 311 311 312 313 314 314 314 315 315 316 316 316 317 318 321 323 325 325 326 327 327 325 323 324 327 328 329 329 329 329 330 332 333 334 335 337 338 339 341 343 346 347 352 356 358 358 358 357 355 356 358 360 360
315 315 315 315 314 313 314 314 314 314 313 312 313 314 313 313 312 311 311 312 311 310 309 309 310 310 309 310 309 310 310 310 310 311 311 311 312 313 314 314 314 315 315 315 316 317 318 320 322 324 326 326 326 327 324 321 323 326 326 326 327 328 328 329 330 332 333 334 335 337 339 340 342 344 346 349 353 355 357 357 355 353 354 358 360 360
314 313 314 315 315 313 313 314 313 313 313 312 311 311 311 311 311 311 311 311 310 309 308 308 309 309 309 309 310 310 310 310 310 310 310 310 311 313 313 314 314 315 315 316 316 317 318 319 320 323 325 326 325 326 325 322 322 324 324 323 324 326 327 328 330 331 332 333 334 335 338 340 342 343 346 348 349 350 353 355 356 356 357 360 360 361
312 311 312 314 314 313 313 314 313 313 314 313 312 311 310 310 310 310 311 310 309 308 309 309 309 309 309 309 309 310 310 310 310 310 311 311 312 313 313 313 314 314 315 316 316 317 317 318 319 321 323 325 325 326 325 323 323 323 322 321 322 324 325 327 328 329 330 331 333 334 336 339 341 343 346 348 349 350 351 353 355 357 358 360 361 362
313 312 313 315 314 313 314 314 312 311 312 312 311 311 311 310 310 310 310 310 310 309 310 310 309 309 309 309 310 310 309 309 310 310 311 311 312 313 313 313 313 314 314 315 316 316 317 318 319 321 322 324 325 325 324 323 323 323 322 321 320 323 324 326 327 328 329 330 331 331 333 336 338 339 341 343 346 349 351 352 355 358 360 360 361 362
313 313 314 315 315 314 314 314 313 312 312 311 311 311 311 310 311 310 310 309 309 309 309 310 310 310 310 310 310 310 309 309 311 311 310 310 312 313 312 313 313 313 314 314 315 316 317 317 318 320 321 323 325 324 323 323 323 323 322 321 320 321 323 325 326 326 328 329 330 330 331 332 335 336 337 338 341 344 347 350 353 356 359 360 361 363
313 314 314 313 315 315 314 314 314 313 313 312 311 312 311 310 310 310 310 309 309 309 310 309 310 310 311 311 311 310 309 309 311 311 311 311 312 312 312 312 313 313 313 314 314 315 316 317 318 319 320 322 324 324 324 324 324 322 322 321 321 321 322 323 324 326 327 328 329 328 328 330 331 333 334 336 337 339 342 345 348 351 354 357 361 363
314 316 314 313 315 315 314 315 315 313 312 312 312 312 311 311 310 310 310 310 309 310 310 310 310 310 310 311 312 311 310 310 311 311 311 311 312 312 312 313 313 313 313 314 314 315 315 316 318 319 320 322 324 325 325 325 324 322 321 320 320 321 321 322 323 325 326 326 327 327 327 328 330 331 331 332 333 335 337 340 344 349 351 354 358 362
Wind_Speed
6 6 6 6 5 5 4 4 2 2 2 2 1 1 2 2 1 1 2 4 11 8 8 11 11 9 7 7 9 10 11 13 14 15 14 12 12 13 13 13 14 14 13 15 18 19 19 19 18 18 17 18 17 17 19 20 20 21 19 17 17 17 18 19 16 14 12 11 11 10 10 10 10 11 11 10 10 9 8 7 6 7 6 4 3 2
5 7 6 5 5 4 2 2 1 2 2 1 1 1 1 2 2 2 3 2 9 7 5 7 10 10 8 6 9 11 12 14 16 17 16 15 14 13 14 15 14 12 11 13 16 18 19 18 18 18 17 18 19 18 20 20 20 21 21 20 19 17 17 19 19 17 15 13 13 11 10 10 8 10 11 9 9 9 8 8 7 6 5 3 3 3
7 6 5 5 4 3 2 3 3 2 2 1 1 2 2 1 2 0 2 2 7 6 2 4 7 9 7 7 10 12 13 13 14 16 16 16 15 13 14 14 14 13 11 13 15 17 19 19 19 18 17 19 19 19 21 21 21 21 22 21 21 20 20 21 21 20 18 17 16 13 11 11 9 10 11 10 10 10 10 9 7 5 5 4 4 4
6 4 6 6 4 4 3 3 4 2 2 2 2 3 3 1 1 1 3 3 5 5 2 1 5 5 4 6 9 12 12 10 11 15 13 14 15 15 15 14 14 15 14 14 14 16 19 20 20 19 18 18 19 19 20 21 21 21 22 23 25 24 23 23 23 22 21 19 17 15 13 12 10 11 12 11 12 12 11 10 7 6 6 5 5 5
5 4 6 6 6 6 5 3 4 4 3 3 3 4 4 3 3 2 2 2 3 4 3 2 3 2 3 5 7 8 10 9 10 13 12 12 14 13 13 14 14 15 15 15 15 16 18 20 21 21 20 19 19 19 20 21 21 21 22 25 27 26 25 25 24 22 21 20 17 15 14 12 11 12 12 11 10 10 10 8 7 6 6 6 6 6
4 5 6 7 7 6 6 5 5 5 4 3 5 7 7 6 6 3 1 1 2 2 3 3 3 0 2 5 6 6 8 10 10 13 14 13 14 13 13 14 14 15 14 15 16 16 18 21 21 22 21 21 20 20 21 22 22 22 23 26 28 27 27 26 25 24 22 21 19 18 15 13 12 11 11 11 9 9 9 7 7 7 6 6 7 7
3 4 6 7 8 7 6 6 4 5 5 4 4 8 10 9 8 5 4 3 2 1 1 2 3 1 1 2 5 7 9 10 11 13 14 13 13 14 13 14 14 15 15 15 16 17 19 21 22 22 23 22 22 21 21 22 22 23 24 28 29 28 28 27 26 25 24 23 22 21 18 14 13 11 12 14 12 10 9 8 8 7 6 7 8 8
3 4 3 5 7 7 6 5 6 7 6 3 3 6 10 11 10 7 5 4 2 2 0 3 2 2 1 1 1 7 9 9 11 12 13 13 14 16 15 16 15 16 16 15 16 17 19 22 23 23 24 24 24 22 22 21 22 23 26 29 30 29 29 28 28 27 26 26 25 24 21 17 16 13 13 16 15 12 11 10 10 8 7 8 8 10
2 3 3 4 6 5 5 3 6 10 7 3 3 5 7 8 7 6 4 2 0 2 2 3 3 2 1 3 4 3 5 5 8 10 12 13 14 16 17 17 17 16 16 16 16 17 19 22 24 24 25 25 25 23 23 23 23 25 27 29 30 29 29 29 29 28 27 28 27 26 23 20 20 17 15 16 15 14 12 11 12 11 9 8 8 9
2 0 1 3 2 2 3 2 4 12 7 2 5 4 3 3 3 3 3 2 2 2 3 4 6 3 1 5 6 3 2 6 6 7 11 13 13 14 16 17 18 16 15 16 17 18 21 24 25 25 25 26 26 24 24 24 23 24 25 27 29 30 29 29 30 30 29 29 28 27 26 24 23 21 19 17 16 15 14 13 14 13 10 8 8 8
2 1 2 4 3 4 4 3 3 9 3 3 7 6 3 3 3 2 1 2 2 3 2 2 8 5 1 5 7 6 7 9 8 7 6 10 14 14 14 15 17 16 14 15 16 18 22 25 25 25 25 26 25 23 24 24 23 23 24 26 29 30 30 30 31 31 31 30 30 29 28 27 26 24 21 19 17 17 17 16 15 14 12 9 9 9
4 3 2 1 3 5 3 1 1 3 2 1 4 5 4 3 2 3 3 2 4 3 1 1 6 6 1 4 6 8 9 12 9 8 9 6 9 13 14 14 15 15 14 14 15 16 18 20 23 25 25 25 25 24 23 24 23 23 24 26 27 28 30 30 31 32 32 31 31 31 30 29 28 26 24 22 20 19 19 18 16 16 15 11 9 9
5 4 5 3 1 7 5 3 4 3 3 4 4 5 5 4 3 4 3 3 4 2 1 2 6 4 2 5 7 9 11 13 11 9 10 11 8 8 12 15 14 14 15 15 14 14 15 16 20 24 25 24 24 24 25 25 24 23 24 27 27 28 31 31 31 31 32 32 33 32 32 31 30 29 27 26 23 21 20 19 18 18 17 15 12 10
2 3 7 6 1 7 8 0 3 2 3 5 5 5 5 5 5 6 4 2 3 2 1 3 5 3 5 5 9 10 9 11 11 10 10 10 12 11 8 13 15 14 15 15 14 14 14 15 20 24 24 24 24 25 26 26 25 24 24 26 28 28 32 33 32 32 32 33 34 34 33 32 31 31 29 28 25 23 22 21 20 19 17 17 16 14
1 4 5 7 3 6 8 4 2 2 1 2 1 2 4 4 4 5 4 4 4 3 3 3 3 2 6 5 9 8 8 10 10 11 12 12 12 13 10 6 13 15 15 14 15 16 16 18 21 23 23 24 25 27 28 26 26 25 25 28 30 28 30 33 32 32 32 33 34 34 34 33 33 32 31 30 27 25 25 23 22 21 19 18 18 17
2 3 4 5 3 4 7 5 3 2 1 1 0 2 2 1 1 1 2 1 3 4 3 3 2 3 5 6 10 10 11 13 13 15 16 16 15 14 13 9 5 9 12 15 15 16 17 20 22 22 24 25 25 27 28 27 27 27 26 30 33 31 32 34 34 34 34 34 34 35 35 34 34 34 32 31 30 28 26 25 24 23 21 19 18 18
2 3 3 6 1 1 7 6 3 3 1 2 1 1 1 2 2 1 2 2 1 5 3 2 3 4 4 3 11 15 14 17 18 18 18 18 18 15 13 12 11 9 8 12 15 16 17 20 23 23 24 25 26 27 28 28 30 31 31 31 32 31 31 33 34 34 34 34 34 35 35 35 35 35 34 33 31 29 28 27 25 24 23 22 20 19
0 3 2 5 2 3 7 4 1 4 4 1 1 2 2 0 1 1 2 3 3 7 3 3 4 5 1 1 10 16 17 18 18 18 19 19 19 17 15 14 13 13 12 11 12 17 17 19 23 24 25 26 27 28 29 30 32 34 34 33 33 32 30 32 33 32 33 34 34 34 35 36 36 36 35 34 32 30 29 28 26 25 25 24 22 21
1 2 3 2 3 5 7 2 2 5 7 3 2 2 0 1 2 0 2 4 5 7 3 4 4 6 5 3 9 13 15 17 16 16 18 19 19 16 15 16 16 14 12 11 10 13 15 17 22 24 25 27 28 27 28 30 31 31 32 32 32 33 34 35 34 33 34 35 33 33 35 37 37 37 36 35 33 32 30 29 28 27 26 26 24 23
2 0 2 2 4 4 4 5 2 5 6 2 2 1 2 1 0 0 0 1 3 5 4 4 3 4 5 6 8 10 12 14 14 15 15 16 17 15 14 15 16 15 12 11 10 10 13 16 22 25 25 25 26 27 27 28 28 29 30 30 29 29 31 32 31 32 35 35 33 33 35 36 37 37 36 36 34 33 31 31 30 28 27 27 26 24
2 1 2 3 4 2 2 5 4 5 6 2 1 3 3 2 1 1 2 2 1 2 4 5 4 3 5 6 8 8 9 11 12 13 12 14 15 14 14 15 15 15 13 13 11 7 11 16 19 21 23 24 24 24 25 26 27 28 28 29 29 28 28 30 29 29 32 32 32 33 35 36 36 37 36 35 35 34 33 32 32 30 29 28 28 26
2 1 1 2 4 4 5 3 3 5 8 6 4 4 3 2 1 3 3 1 1 1 1 3 5 4 4 5 7 8 8 9 11 11 10 12 15 14 14 15 16 16 15 15 15 10 4 10 17 19 19 21 21 21 25 26 26 27 27 27 28 28 28 29 29 29 32 33 32 32 34 33 33 35 35 33 33 34 34 33 33 32 30 29 29 28
1 2 4 4 4 4 4 2 3 3 4 5 6 5 3 2 2 2 2 3 2 1 1 2 4 5 4 6 8 8 7 8 10 11 10 11 13 14 15 15 15 16 16 17 16 15 13 8 4 11 17 21 21 21 25 26 25 26 27 27 27 28 28 29 28 28 32 35 34 34 33 31 31 33 33 31 31 32 33 33 34 34 32 31 29 29
0 1 4 5 3 1 3 2 1 2 2 2 6 7 5 3 2 2 1 1 1 2 1 2 4 5 4 7 8 8 8 8 9 11 12 11 11 12 14 15 15 15 16 18 17 15 17 20 17 9 1 11 17 19 21 23 24 25 26 26 27 28 28 28 27 27 30 34 33 31 31 31 30 29 29 29 28 30 30 29 32 34 34 32 30 29
1 0 1 3 3 2 3 3 3 0 2 2 4 7 7 6 3 0 1 1 1 2 2 1 4 4 4 6 8 9 9 10 10 11 12 11 11 12 12 13 14 14 16 18 18 17 18 19 19 19 17 10 5 15 20 21 22 23 25 26 27 27 27 27 26 26 29 31 30 27 28 29 28 27 28 29 28 29 30 28 28 32 34 33 31 30
1 1 0 1 2 3 2 2 2 1 2 1 3 7 8 9 6 1 0 0 2 2 3 2 4 4 4 7 9 11 11 11 12 12 12 12 12 12 12 12 13 13 15 18 18 17 17 17 18 20 21 20 14 5 12 20 22 22 23 25 26 26 26 26 26 26 27 28 28 27 27 28 28 27 29 31 30 29 29 27 27 30 33 34 32 32
2 3 3 2 2 1 2 4 1 1 2 2 3 7 8 8 7 3 0 1 2 2 2 4 4 4 5 8 9 10 11 11 12 13 13 12 13 13 12 12 13 13 14 15 16 16 16 16 19 22 22 20 21 18 8 7 17 21 22 23 25 25 24 25 25 25 26 27 27 27 27 28 29 29 30 32 33 30 27 27 28 29 32 34 34 33
3 3 3 6 7 5 5 5 2 1 3 3 3 6 7 7 6 3 3 3 1 1 3 4 3 3 5 7 8 9 10 11 11 13 12 11 12 13 12 13 15 16 16 15 15 16 17 16 17 21 23 22 21 22 20 13 4 10 16 22 24 24 24 24 25 26 27 26 26 26 29 30 29 30 32 34 36 34 30 28 28 29 31 34 34 34
3 3 2 5 7 6 5 5 3 2 3 1 2 3 4 6 6 5 5 3 2 1 3 4 4 5 5 6 7 8 8 9 11 11 10 11 12 13 14 15 16 17 17 17 16 14 14 14 15 18 21 22 22 22 21 19 16 11 6 12 20 24 25 24 27 31 29 26 27 30 33 33 30 29 33 35 36 36 34 31 30 31 33 34 35 35
1 3 3 3 7 7 5 5 4 4 2 1 2 2 2 3 4 5 5 4 3 4 5 6 8 8 5 5 6 6 6 7 8 9 10 12 14 14 14 16 16 16 17 16 15 14 13 12 13 16 19 20 22 23 21 19 18 16 13 8 9 19 23 22 27 33 31 27 30 34 36 37 35 32 32 35 37 37 37 35 32 31 33 36 36 35
1 2 2 2 4 5 4 4 3 3 3 2 2 2 1 1 3 4 4 4 4 5 5 7 7 6 5 4 4 5 6 6 8 10 11 11 13 14 14 15 15 15 16 16 15 14 13 13 14 15 17 19 20 20 20 20 18 16 15 14 10 9 17 21 25 30 31 30 33 34 36 37 36 34 34 36 38 37 37 36 33 32 34 36 36 36
2 2 1 1 3 3 3 3 3 2 0 1 2 3 2 2 3 4 4 3 2 4 5 6 4 3 3 4 3 4 5 7 8 9 9 10 11 13 13 14 14 14 14 15 15 15 14 13 15 17 18 18 18 18 19 19 18 17 16 15 14 11 10 17 23 28 31 32 32 33 36 35 33 33 36 37 37 37 37 36 33 33 35 36 36 37
1 3 2 2 3 3 1 3 3 0 2 3 2 2 2 3 3 3 4 4 3 2 3 3 3 3 3 3 4 4 5 6 8 8 8 9 11 11 12 12 12 13 13 13 14 15 15 14 15 17 18 18 17 17 17 18 17 17 17 16 14 13 10 12 18 26 31 31 31 34 37 35 32 33 35 36 37 37 36 34 33 33 34 34 34 34
1 2 2 1 1 3 1 3 2 3 3 1 3 1 1 2 3 2 4 5 4 2 3 4 5 4 3 3 4 4 4 4 5 6 7 8 9 10 12 12 12 12 12 12 13 14 15 16 17 18 18 18 18 17 16 16 17 17 17 16 14 13 12 11 13 20 27 30 32 35 35 34 33 34 35 37 37 35 33 32 34 33 31 29 29 31
2 2 2 0 1 2 1 2 3 3 0 2 2 1 1 0 2 4 5 4 4 4 4 5 4 4 3 4 4 4 5 2 1 4 7 8 9 10 11 12 12 13 12 11 12 13 16 18 19 20 20 20 19 19 17 17 19 18 17 15 15 15 14 13 12 13 20 26 30 30 30 32 34 34 35 36 34 33 32 32 33 33 29 26 26 30
3 2 2 1 0 1 1 2 3 0 2 1 1 1 2 2 4 4 4 3 3 3 2 3 3 3 3 4 5 6 6 4 4 2 6 9 10 10 11 11 12 13 12 12 12 13 16 18 18 19 21 21 20 19 19 20 21 19 16 15 15 16 17 17 16 13 11 17 24 26 26 29 31 32 33 31 30 30 30 31 34 35 33 28 26 26
3 3 2 1 1 1 1 2 1 1 1 4 3 2 2 2 3 2 2 3 3 2 2 2 2 3 3 5 6 8 6 3 6 4 4 9 11 11 11 12 12 13 14 14 14 14 14 16 17 18 19 20 21 20 19 21 21 17 15 15 16 17 18 19 18 17 15 10 13 19 24 28 31 31 29 27 26 28 30 31 34 35 33 30 27 26
1 1 2 2 1 1 1 1 1 2 2 3 5 4 1 1 1 1 2 2 5 3 2 2 2 3 4 5 7 8 6 3 6 3 4 9 12 12 12 13 14 15 15 16 16 16 15 16 16 17 18 18 20 20 20 20 19 15 14 15 16 16 17 20 19 17 14 11 8 10 18 26 32 32 30 27 26 28 30 30 31 31 30 30 29 28
3 1 1 2 1 2 2 2 2 2 0 3 6 6 3 2 4 3 3 3 5 4 1 1 2 3 3 4 6 6 4 3 3 1 6 11 13 12 12 13 13 15 15 16 17 16 16 17 16 16 16 16 19 21 21 20 18 14 12 14 15 15 16 19 21 19 15 13 11 9 10 18 26 30 30 29 30 30 29 28 28 28 28 28 29 28
3 2 2 3 3 3 4 3 2 3 1 3 7 7 4 3 5 4 4 2 5 4 1 1 2 2 2 3 3 3 2 3 4 5 8 13 15 14 13 12 13 15 15 15 17 17 17 16 16 15 15 16 17 19 20 20 18 15 12 12 13 15 15 15 17 18 18 17 15 13 10 11 17 23 26 28 29 29 27 27 27 27 26 26 27 27
2 1 2 3 3 4 5 4 3 3 1 4 7 6 4 4 5 5 3 2 4 3 2 1 3 3 3 3 3 3 3 4 6 8 10 13 14 15 15 14 15 15 15 15 16 17 16 15 15 15 15 15 15 16 18 19 18 16 15 12 12 14 15 15 14 16 18 19 17 15 13 10 10 15 22 24 25 25 25 25 24 24 26 27 26 27
2 2 2 3 3 3 4 4 4 4 1 5 6 5 4 4 4 2 1 3 3 3 2 2 4 4 3 4 4 4 6 7 8 9 11 11 12 14 17 18 16 16 17 17 17 17 16 15 15 16 16 16 15 14 15 17 17 16 16 15 13 13 15 17 18 17 16 16 17 17 15 11 9 10 14 19 21 22 23 24 23 23 25 26 26 25
3 3 3 3 3 2 3 4 5 3 2 8 9 5 5 4 1 1 2 3 4 3 2 3 4 4 4 5 6 7 8 9 9 9 10 11 11 13 17 19 18 17 17 17 17 17 16 15 15 16 17 17 15 13 14 15 15 15 16 16 15 13 13 16 19 19 17 16 16 17 16 14 12 12 13 15 18 20 22 24 24 23 23 24 25 25
4 4 3 3 4 3 4 5 3 1 3 9 7 3 3 2 2 2 1 1 3 2 2 3 3 4 4 5 7 9 9 9 9 9 9 10 11 13 15 18 19 19 18 18 18 18 17 16 15 15 16 17 16 14 14 14 14 14 16 17 17 15 13 14 16 17 17 18 18 17 18 17 16 15 15 16 17 19 21 22 22 24 26 26 27 28
3 2 1 1 3 4 3 2 1 2 3 6 3 1 3 3 3 2 2 1 2 2 2 3 4 5 5 6 7 8 9 9 10 10 10 11 11 13 15 17 20 21 20 19 19 18 17 17 17 16 16 17 16 15 15 15 14 13 15 18 18 16 13 13 14 15 16 19 20 19 19 19 18 16 15 16 18 18 17 16 20 26 29 28 29 31
0 1 0 1 1 3 5 4 3 3 5 6 4 2 3 3 2 4 4 3 2 2 2 3 5 6 6 7 7 7 9 10 11 11 11 12 13 15 17 18 19 21 22 21 19 18 18 18 18 17 16 17 17 16 15 17 16 13 14 18 19 17 14 13 13 14 17 18 20 20 19 18 18 18 16 16 17 18 16 13 18 24 26 26 29 32
2 4 4 3 1 2 3 3 5 6 7 7 6 5 4 3 4 5 5 4 3 3 3 4 5 6 7 7 7 9 11 12 12 13 12 12 13 15 17 19 20 21 23 23 22 20 19 18 17 17 16 16 17 16 16 17 17 15 16 18 18 17 15 13 12 13 16 18 19 19 18 16 18 20 19 17 16 17 17 16 18 22 26 29 31 31
4 6 6 5 5 5 4 1 2 4 5 6 6 5 5 5 6 7 7 5 4 4 5 5 6 7 7 7 8 9 12 12 13 13 13 12 13 15 17 19 20 22 23 25 24 22 20 19 18 18 17 16 16 17 18 17 17 16 16 17 17 17 16 15 13 12 13 15 17 18 16 15 17 20 21 21 19 18 17 17 17 19 25 31 33 32
5 6 5 4 5 7 7 6 5 5 5 7 10 9 7 6 7 8 8 7 6 6 6 6 7 7 8 8 8 10 12 12 13 14 14 13 14 16 18 19 21 23 24 26 26 24 22 21 20 19 19 18 17 18 18 17 16 15 14 14 15 15 16 16 15 13 12 13 14 15 15 15 16 18 21 23 23 21 18 18 19 20 24 30 33 34
5 6 4 2 5 7 7 6 7 5 5 6 8 9 8 7 8 9 8 7 7 7 6 6 7 8 9 10 10 10 11 12 14 16 15 15 16 18 20 20 22 23 25 26 26 26 25 24 21 20 20 19 17 17 16 15 15 16 14 12 11 11 13 15 15 13 11 11 11 13 14 15 15 16 18 21 23 23 22 22 22 23 26 29 31 33
7 6 6 6 7 7 6 5 6 5 5 3 4 6 7 8 8 9 7 7 7 6 5 6 7 8 8 9 10 12 12 13 16 17 15 16 19 20 20 21 22 24 25 25 27 28 28 27 24 21 20 19 17 15 13 11 12 14 14 11 10 9 10 12 14 13 11 11 11 12 14 15 14 14 16 19 21 22 24 26 26 26 27 27 27 31
Wind_Direction
177 173 186 197 184 187 198 211 210 105 88 78 79 18 11 330 326 14 352 184 190 204 217 219 231 237 211 179 179 181 187 195 199 201 201 196 193 193 192 195 195 197 199 194 192 193 193 193 190 187 186 185 185 184 181 180 183 186 186 186 189 195 200 201 198 196 198 200 201 207 212 217 222 225 229 234 237 244 253 265 287 301 305 308 291 242
190 192 180 172 175 194 198 174 152 122 132 159 221 290 306 276 326 10 355 206 193 211 229 216 238 247 228 194 174 175 191 199 198 201 202 199 197 196 196 197 198 198 195 191 190 191 193 193 191 189 186 185 185 185 185 185 185 187 188 190 192 194 198 203 204 202 200 201 203 204 209 212 216 223 227 232 237 243 256 271 287 288 281 275 253 218
189 198 164 163 177 164 114 142 163 149 158 171 202 260 259 273 313 357 16 6 194 212 255 209 239 252 234 206 180 180 195 201 198 198 199 197 197 199 198 196 196 195 192 191 190 190 193 194 192 191 190 189 188 187 189 188 185 186 188 191 196 199 202 206 210 210 209 211 211 212 217 216 216 224 226 230 238 246 260 273 280 266 250 243 227 211
178 185 171 172 166 165 163 159 166 159 182 206 210 237 241 265 277 194 47 41 179 208 320 256 251 263 227 204 195 192 196 197 197 199 198 197 199 201 199 197 194 192 192 193 194 193 193 193 192 193 194 193 191 190 191 190 187 187 189 193 200 205 208 210 212 213 214 216 216 219 225 226 225 228 230 235 243 251 260 269 267 242 229 227 217 208
154 130 157 171 174 197 208 174 188 222 223 214 218 234 245 235 240 248 44 64 183 218 270 273 271 270 204 208 208 197 195 195 191 195 200 201 203 202 200 200 196 193 193 194 196 195 193 193 193 194 195 194 193 192 192 191 191 191 192 197 202 206 209 211 213 212 214 216 215 217 222 224 225 226 228 231 237 246 253 256 250 232 221 218 213 208
164 132 148 163 176 200 217 214 216 229 239 234 213 215 229 237 237 228 167 204 244 221 218 252 284 24 163 214 212 188 194 206 198 197 203 201 201 202 203 204 199 196 195 195 196 194 192 193 193 194 194 195 196 197 195 193 194 194 195 198 202 205 208 211 213 212 212 213 213 213 210 208 210 212 216 219 221 230 237 238 234 231 223 216 214 209
149 143 161 168 173 181 204 226 207 199 234 248 201 200 211 221 227 221 203 220 280 27 126 244 282 344 110 211 210 192 194 206 206 207 207 201 200 203 204 205 202 200 197 196 196 195 194 193 193 193 193 196 199 200 198 196 196 195 196 200 202 203 206 209 212 212 211 210 212 214 211 207 207 205 212 219 223 227 232 236 234 231 226 221 217 212
155 151 167 173 174 178 205 224 191 188 221 232 161 186 200 210 215 209 207 222 286 356 161 200 238 300 303 24 191 196 201 210 215 218 213 204 203 204 206 206 203 202 198 195 195 195 196 195 194 194 194 198 201 199 197 195 197 196 199 203 203 203 205 207 211 212 211 211 212 215 214 215 214 211 215 222 226 230 233 238 235 231 229 227 220 215
166 166 168 172 177 190 210 223 181 185 211 224 165 172 191 205 207 195 206 223 284 293 242 173 184 255 263 39 41 178 215 245 244 243 234 222 212 207 207 207 205 204 200 196 196 195 195 195 196 196 195 198 200 198 195 196 198 199 202 204 203 203 204 206 210 211 213 214 214 214 215 217 219 219 221 223 227 230 232 237 238 235 231 227 223 220
61 81 105 123 138 227 230 321 187 189 206 189 147 138 141 161 165 167 196 167 127 252 251 171 187 227 38 47 37 53 354 333 310 278 248 234 228 217 211 209 206 205 202 200 200 197 195 195 195 196 196 198 199 198 196 196 197 198 200 202 203 204 203 205 209 211 213 215 215 216 216 217 220 221 223 225 228 230 232 235 238 237 230 221 222 220
56 30 63 79 32 311 273 320 224 201 205 114 149 152 130 122 124 118 119 131 162 225 264 188 195 214 62 61 41 33 9 353 345 333 289 237 229 224 219 215 209 204 201 200 202 200 196 195 195 195 197 197 197 197 196 194 195 196 196 199 203 204 203 205 208 210 212 214 215 217 218 218 219 220 222 223 225 227 230 231 233 236 231 221 220 220
64 67 30 36 12 338 287 163 90 198 217 156 163 163 152 132 134 132 117 166 203 201 310 308 193 205 208 66 32 15 8 0 355 352 344 305 245 226 218 217 215 212 206 202 203 201 195 192 192 194 196 195 193 194 194 194 195 194 194 197 199 202 203 204 206 209 211 212 214 217 218 219 219 219 221 222 223 224 225 227 231 237 236 227 222 221
77 68 13 329 327 1 341 179 130 123 177 196 187 173 171 151 164 182 158 178 206 173 13 236 186 180 102 68 21 10 10 1 357 353 349 346 326 271 228 214 211 214 211 207 205 202 198 191 189 192 194 191 189 191 192 195 195 193 194 197 197 200 205 205 205 207 209 211 214 217 218 219 219 220 222 224 225 225 226 227 230 237 238 234 229 223
119 119 18 359 331 360 357 159 158 132 151 177 182 181 182 168 175 187 164 151 197 167 60 211 195 165 124 74 16 12 10 360 359 359 357 358 352 335 280 225 210 210 210 209 208 204 203 197 191 192 192 189 189 192 193 194 194 192 192 195 197 202 206 206 206 208 209 212 215 217 218 219 220 221 223 226 226 227 230 231 233 237 240 240 239 235
137 137 24 5 345 351 8 26 338 302 143 128 177 214 194 181 184 188 177 170 171 138 91 171 201 179 147 94 25 20 16 11 14 10 10 10 2 357 344 260 217 212 210 210 212 208 206 201 195 192 191 191 191 192 194 193 192 191 191 195 199 200 203 206 207 208 210 213 215 217 218 219 220 221 224 226 228 230 233 235 237 238 240 242 243 243
76 93 356 332 295 330 0 4 335 299 205 100 21 243 193 185 264 139 156 148 145 136 115 166 168 53 132 110 40 28 25 23 23 19 18 15 8 8 9 357 292 239 219 212 211 210 209 203 196 194 193 193 191 191 193 192 191 191 192 198 201 201 204 207 208 209 212 214 215 217 217 218 220 221 223 227 229 232 234 237 238 239 241 242 244 246
110 107 347 326 258 28 0 341 342 6 270 173 164 183 74 357 315 83 121 57 114 180 164 157 119 68 145 135 26 19 23 25 23 22 21 16 13 13 11 4 349 326 278 236 217 209 209 203 197 197 196 194 193 192 192 192 193 194 195 197 200 201 203 205 207 210 211 213 214 216 217 217 218 220 222 226 229 231 232 235 238 239 241 243 245 247
98 129 53 353 351 4 350 310 205 30 1 240 151 110 85 39 289 354 156 144 181 193 159 78 95 68 123 230 11 13 18 20 19 21 22 21 18 15 9 1 351 342 327 294 244 216 208 203 199 199 198 198 196 194 194 194 195 198 199 199 199 199 199 203 206 208 209 212 213 215 216 217 218 220 221 224 228 230 231 234 236 237 240 243 245 247
345 122 120 24 332 325 348 336 186 25 20 43 87 92 70 190 177 193 185 167 184 189 142 99 104 60 41 9 5 11 15 13 11 15 20 23 21 16 10 4 357 348 341 326 282 233 212 204 200 198 199 201 198 195 195 195 195 197 199 199 200 200 203 206 205 205 210 212 212 213 216 217 219 220 221 223 227 229 231 233 235 237 239 242 245 247
315 61 130 42 338 305 357 31 3 357 15 63 106 74 350 344 150 152 156 189 200 183 150 141 137 66 43 14 3 12 15 10 7 10 16 20 19 16 12 9 4 356 347 337 309 254 221 210 205 200 198 200 199 197 196 195 195 197 198 198 199 200 202 204 202 203 208 210 210 212 216 217 219 220 221 224 227 229 230 232 235 238 240 241 243 245
304 25 99 20 359 321 44 40 23 11 15 20 53 40 26 358 306 136 70 12 292 196 169 162 144 84 45 12 1 5 10 8 7 6 11 17 17 17 16 14 13 7 358 350 339 285 229 215 209 203 198 198 199 195 194 196 196 198 198 198 199 198 198 200 199 201 206 207 208 211 215 217 219 220 222 224 226 228 230 232 234 236 238 240 242 243
349 32 77 35 36 78 85 41 357 18 28 35 45 29 8 359 214 188 165 119 2 335 177 163 140 97 49 13 3 3 5 9 8 4 8 14 14 14 16 17 18 16 11 5 4 355 294 224 210 201 193 195 197 190 190 195 197 197 199 199 199 199 200 201 199 201 205 207 207 210 214 215 217 220 221 221 224 226 229 231 233 234 236 238 241 243
4 62 69 69 57 79 101 44 343 360 19 40 49 31 2 2 340 255 181 146 125 80 77 111 122 110 58 17 12 14 15 15 11 7 8 12 12 12 15 18 20 20 18 16 15 15 12 359 243 202 188 191 196 193 194 197 197 197 198 198 199 200 202 202 200 201 205 208 209 211 212 212 214 217 218 217 219 223 225 229 232 234 235 236 238 242
357 64 70 88 86 139 189 203 352 352 328 43 44 24 9 8 346 331 21 90 121 105 134 147 129 123 71 26 20 25 29 26 19 14 13 10 8 10 13 16 19 21 22 22 21 20 20 21 17 9 231 198 197 194 194 197 198 198 198 197 199 202 203 201 200 200 204 207 209 208 208 210 211 212 213 213 216 220 222 224 229 233 235 235 235 239
20 5 90 121 129 162 190 191 186 120 28 52 32 9 10 17 9 342 359 325 108 51 342 191 125 111 74 38 27 29 31 29 25 21 19 17 12 9 9 12 16 20 24 26 23 21 22 22 20 14 8 357 240 204 196 195 197 199 199 199 201 204 203 201 200 200 202 205 205 204 206 208 209 208 210 212 215 219 220 220 224 231 234 234 233 236
62 41 5 194 187 199 189 151 169 136 56 64 16 9 15 16 9 357 312 126 121 59 348 40 96 106 78 39 29 28 25 26 25 20 18 18 14 11 11 11 13 17 25 27 25 22 21 20 18 17 14 10 0 304 213 200 199 201 202 202 203 204 203 202 202 200 201 203 202 203 205 206 206 207 210 214 216 218 218 218 220 228 233 233 232 234
117 69 23 26 57 80 90 76 48 352 62 81 22 16 17 14 4 340 253 78 88 117 88 57 61 94 69 33 26 26 22 23 22 18 18 14 9 10 10 12 16 19 24 27 25 22 20 18 17 16 15 13 11 5 345 227 208 206 203 202 204 205 203 202 201 200 200 202 202 204 205 206 206 208 210 215 219 217 216 217 219 223 229 232 233 233
117 82 34 54 66 65 74 75 59 8 63 54 12 14 18 13 7 10 50 53 13 185 117 77 58 87 65 33 30 31 26 25 23 20 18 12 8 10 9 12 19 21 21 23 24 21 19 16 15 14 13 12 10 9 8 3 310 227 211 205 204 204 203 201 199 200 203 202 203 206 208 208 208 209 213 218 221 220 217 217 219 222 227 231 232 233
97 84 47 73 82 76 62 60 51 49 61 27 349 16 15 9 22 50 57 33 327 353 84 104 102 84 62 39 40 40 32 30 27 20 16 13 11 10 11 16 19 19 18 17 17 16 15 14 12 12 12 11 10 9 8 7 4 353 296 226 211 208 207 201 200 205 206 204 207 211 213 212 210 211 216 218 221 222 221 220 221 224 227 230 232 233
70 84 75 95 100 83 50 37 37 28 16 356 29 40 5 12 52 73 71 60 52 52 80 121 111 81 53 35 43 45 38 34 28 21 17 17 14 11 12 17 18 17 15 12 10 9 7 7 7 8 10 11 11 8 5 1 359 357 351 324 247 220 213 205 204 208 207 206 212 216 217 218 216 214 216 219 222 224 224 223 223 224 227 230 232 233
2 80 74 106 117 93 43 25 24 8 346 345 52 55 22 80 93 86 80 83 81 76 101 131 119 85 51 32 38 41 34 28 25 23 20 17 14 12 13 15 15 15 12 8 5 4 2 1 1 2 6 8 7 4 2 359 353 349 350 346 328 263 226 213 209 208 207 210 215 217 218 220 219 219 220 222 223 224 224 224 222 224 227 230 231 232
61 104 95 153 152 120 48 5 357 8 357 177 106 67 32 56 98 85 76 78 90 108 130 152 138 87 47 23 21 19 18 22 26 26 20 13 11 12 13 12 11 10 9 5 1 360 0 359 358 358 359 1 1 359 358 355 350 348 346 341 337 322 266 229 217 211 212 215 215 216 219 219 217 219 222 224 223 223 224 223 222 224 227 229 230 231
80 128 126 174 175 131 83 323 322 307 191 178 110 54 21 50 81 103 97 81 74 123 158 163 128 98 56 23 18 5 5 23 31 27 20 12 8 8 9 9 6 5 6 3 359 358 357 354 353 352 352 353 354 352 351 352 349 345 341 335 333 330 308 262 231 218 216 217 217 218 219 218 216 218 221 223 223 223 223 221 221 223 225 227 228 229
125 123 117 202 181 134 140 291 269 217 209 137 71 8 310 52 67 121 118 86 69 76 98 98 96 90 61 31 20 358 347 13 40 38 29 18 8 3 2 3 2 0 0 359 358 356 352 349 348 347 346 349 349 345 344 349 350 344 340 340 340 338 328 303 263 233 222 219 220 221 219 218 218 218 220 222 222 221 220 219 221 223 222 223 223 225
149 122 117 172 141 137 177 252 213 202 195 47 41 303 251 59 77 115 118 91 59 62 95 102 88 71 45 16 360 341 320 286 117 59 40 25 12 2 356 355 356 356 355 353 352 351 347 344 344 344 343 344 344 343 344 348 351 350 348 351 354 354 349 337 310 267 237 224 221 221 219 219 219 219 220 221 220 219 218 218 221 222 219 218 219 223
176 154 137 130 131 151 178 200 201 122 40 70 214 199 170 158 144 144 148 130 78 49 81 108 84 66 38 8 350 336 321 266 209 119 44 26 12 2 355 349 348 348 349 347 345 343 341 340 340 341 339 337 339 342 343 346 353 355 355 359 2 1 2 1 353 334 288 242 226 221 220 220 220 220 221 220 217 216 217 218 222 223 220 219 220 223
186 170 160 171 206 209 200 209 262 331 203 178 168 159 171 165 156 177 213 162 129 72 51 97 84 56 32 17 359 341 333 256 209 194 47 20 4 356 350 345 342 340 339 339 339 336 334 335 335 337 337 335 337 340 340 343 351 357 359 2 3 3 5 7 4 357 344 304 247 229 225 223 223 222 222 219 215 216 217 218 222 224 221 219 220 222
159 198 207 202 192 186 221 230 240 253 219 162 148 145 122 84 144 189 285 193 152 115 67 83 61 37 22 14 1 346 333 249 214 202 27 3 350 344 339 337 340 339 336 335 333 331 331 333 332 334 337 338 338 339 339 339 344 354 2 2 2 2 2 2 358 352 346 337 305 254 231 226 226 224 223 221 220 219 220 221 222 222 220 219 221 223
106 65 194 209 196 186 215 235 222 224 191 123 149 153 149 184 176 186 268 227 155 129 97 70 37 22 7 359 357 349 332 277 246 291 357 342 333 331 329 328 331 333 334 334 332 329 328 326 326 328 335 342 342 339 338 337 339 350 2 0 359 359 357 353 346 338 335 331 315 292 253 231 226 223 221 222 225 225 223 222 223 221 219 220 222 225
128 122 187 214 213 193 211 242 244 246 262 142 159 157 147 171 181 210 263 219 143 150 164 16 349 344 341 333 330 323 309 294 291 313 328 323 318 317 318 320 323 325 327 330 331 330 325 320 321 326 333 340 342 339 339 339 339 345 356 1 359 354 349 343 333 330 335 335 320 307 292 256 233 224 221 222 224 226 225 224 224 222 220 223 226 228
131 142 193 225 228 212 220 238 258 266 242 173 173 164 147 168 202 231 261 105 134 177 211 293 308 314 309 298 297 286 283 292 295 300 306 308 309 311 312 314 316 316 318 322 325 327 324 319 317 319 324 331 336 339 342 341 339 339 345 357 3 352 341 335 331 331 336 338 333 326 315 292 259 237 230 228 226 227 227 227 227 224 223 226 228 229
168 160 185 223 228 221 227 242 262 275 200 153 152 148 162 200 223 233 121 115 156 186 207 269 292 307 297 285 281 276 283 293 292 291 296 300 302 306 309 312 314 314 315 318 321 322 323 320 315 313 317 325 331 338 343 342 339 337 338 346 356 351 338 334 336 337 338 338 339 338 327 306 277 249 237 233 233 232 231 231 231 229 227 228 230 229
178 186 204 201 192 203 218 221 245 282 146 145 144 152 198 221 223 87 118 150 169 184 234 265 277 295 296 292 290 287 289 294 293 292 294 296 297 300 304 308 310 309 311 312 313 317 318 315 312 309 311 317 324 332 341 342 339 335 335 338 342 341 338 337 338 339 340 340 340 341 335 316 287 267 252 241 237 237 237 237 236 235 232 231 231 232
186 204 215 198 187 204 214 205 218 330 147 162 162 165 188 175 87 103 167 178 174 201 259 269 269 283 286 289 294 297 297 296 295 299 299 297 298 298 299 304 306 306 308 308 307 311 313 311 308 305 304 308 314 321 333 341 339 333 332 333 334 334 336 339 339 338 338 338 337 335 336 330 315 295 273 255 244 238 235 235 238 242 243 241 239 238
202 202 251 224 200 220 250 237 65 46 151 180 200 148 134 125 105 148 196 224 205 214 247 272 284 293 292 289 291 293 296 298 299 302 301 300 301 300 298 300 301 302 304 304 303 305 307 305 304 302 298 300 305 311 322 332 335 333 332 332 332 332 335 339 340 338 336 334 331 329 332 333 329 316 286 260 248 239 232 227 233 241 243 243 243 242
283 90 39 261 202 257 270 249 206 200 189 192 215 200 151 144 154 179 199 214 222 232 242 263 287 296 295 294 292 287 291 298 301 302 302 301 301 302 300 299 299 300 301 301 301 303 304 303 302 299 295 295 297 302 312 321 325 327 331 335 334 331 333 340 338 335 335 332 327 327 330 332 330 321 299 272 255 250 246 233 230 238 242 242 241 240
176 170 202 222 183 223 245 208 196 217 210 202 209 204 192 201 198 195 209 216 219 239 247 260 281 288 287 287 286 288 296 301 301 302 304 303 301 302 302 301 299 298 298 298 299 301 301 299 295 293 291 291 291 294 301 310 316 320 327 334 335 330 331 338 337 332 333 331 327 328 330 331 329 322 309 294 276 266 262 251 239 240 245 245 241 240
165 174 201 215 209 220 240 220 206 239 236 227 226 213 205 216 209 201 210 218 225 240 252 264 272 279 284 285 284 292 300 302 300 300 301 301 301 300 298 298 298 297 296 296 297 298 296 292 289 288 288 286 283 287 293 300 307 314 320 328 332 331 328 330 332 331 331 329 329 331 332 330 328 323 316 309 299 284 273 267 259 251 249 247 244 241
132 166 185 197 210 234 258 252 229 241 251 237 229 225 223 221 210 202 206 217 232 242 254 265 267 271 278 282 285 294 299 300 300 301 300 299 300 298 296 295 295 295 295 294 294 294 291 287 284 284 284 283 281 283 286 290 297 307 314 320 327 329 324 323 328 331 331 331 330 331 332 331 327 323 317 311 305 297 286 278 274 270 265 258 251 246
163 185 170 173 217 236 248 228 202 223 259 237 217 219 217 204 198 199 201 213 228 236 248 265 272 274 275 278 285 294 299 301 301 300 298 297 297 295 294 294 294 293 293 292 292 291 287 284 282 280 279 280 280 279 278 280 289 300 308 312 320 324 320 319 322 323 325 329 331 330 330 328 325 320 313 307 305 306 302 292 283 277 274 272 264 256
198 194 169 190 227 241 245 215 181 207 260 249 191 194 187 178 189 200 205 217 230 234 243 259 273 282 283 284 289 293 297 301 302 301 297 295 295 293 290 290 291 291 291 291 290 289 286 284 281 277 275 276 276 273 269 270 282 294 300 305 312 315 312 312 313 314 318 324 326 327 326 323 320 318 311 304 303 307 309 304 297 287 282 282 277 265